ACA869 EGLL-CYHZ

Flight info

Callsign ACA869
Flight time N/A
Altitude 38000
Route CPT L9 BUCGO DCT FELCA DCT OFSOX DCT SLANY DCT DIMUS DCT WTD DCT TOBOR/M084F390 DCT 5230N02000W 5230N03000W 5230N04000W 5030N05000W DCT BUDAR/N0473F400 DCT SILRO Q846 NOTOP DCT AGMIR LIRLA5
Aircraft B789/H-SDE1E2E3FGHIJ2J3J4J5M1RWXY/LB1D1

Departure

Time N/A
Airport London Heathrow Airport (EGLL)

Arrival

Time 2026-04-27 23:19
Airport Halifax / Stanfield International Airport (CYHZ)
Time Latitude Longitude Altitude Speed Heading
2026-04-27 22:30 47.33068 -57.93112 40441 ft 476 kts 234°
2026-04-27 22:31 47.29156 -58.00908 40429 ft 476 kts 234°
2026-04-27 22:31 47.25210 -58.08750 40427 ft 477 kts 234°
2026-04-27 22:32 47.21256 -58.16587 40425 ft 478 kts 234°
2026-04-27 22:32 47.17292 -58.24420 40428 ft 479 kts 234°
2026-04-27 22:33 47.13309 -58.32269 40428 ft 479 kts 234°
2026-04-27 22:33 47.09342 -58.40063 40431 ft 480 kts 234°
2026-04-27 22:34 47.05339 -58.47907 40428 ft 481 kts 234°
2026-04-27 22:34 47.01321 -58.55756 40433 ft 482 kts 234°
2026-04-27 22:35 46.97609 -58.63897 40436 ft 481 kts 240°
2026-04-27 22:35 46.94127 -58.72196 40431 ft 482 kts 239°
2026-04-27 22:36 46.90551 -58.80501 40326 ft 478 kts 238°
2026-04-27 22:36 46.88836 -58.84533 40431 ft 457 kts 238°
2026-04-27 22:36 46.87177 -58.88421 40425 ft 446 kts 238°
2026-04-27 22:37 46.83875 -58.96091 40428 ft 450 kts 238°
2026-04-27 22:37 46.80533 -59.03866 40442 ft 454 kts 238°
2026-04-27 22:38 46.77187 -59.11609 40443 ft 454 kts 238°
2026-04-27 22:38 46.73820 -59.19389 40438 ft 453 kts 238°
2026-04-27 22:39 46.70595 -59.26817 40431 ft 454 kts 238°
2026-04-27 22:39 46.67217 -59.34576 40436 ft 453 kts 238°
2026-04-27 22:40 46.63838 -59.42318 40437 ft 453 kts 238°
2026-04-27 22:40 46.60457 -59.50040 40434 ft 453 kts 238°
2026-04-27 22:41 46.57068 -59.57762 40431 ft 453 kts 238°
2026-04-27 22:41 46.53699 -59.65413 40432 ft 452 kts 237°
2026-04-27 22:42 46.50308 -59.73097 40432 ft 452 kts 237°
2026-04-27 22:42 46.46914 -59.80764 40428 ft 451 kts 237°
2026-04-27 22:43 46.43515 -59.88422 40423 ft 452 kts 237°
2026-04-27 22:43 46.40132 -59.96022 40421 ft 452 kts 237°
2026-04-27 22:44 46.36723 -60.03660 40415 ft 452 kts 237°
2026-04-27 22:44 46.33305 -60.11297 40413 ft 452 kts 237°
2026-04-27 22:45 46.29885 -60.18920 40409 ft 452 kts 237°
2026-04-27 22:45 46.26460 -60.26531 40410 ft 451 kts 237°
2026-04-27 22:46 46.23055 -60.34078 40410 ft 452 kts 237°
2026-04-27 22:46 46.19621 -60.41668 40412 ft 452 kts 237°
2026-04-27 22:47 46.16185 -60.49243 40417 ft 451 kts 237°
2026-04-27 22:47 46.12741 -60.56814 40417 ft 451 kts 237°
2026-04-27 22:48 46.09302 -60.64353 40416 ft 451 kts 237°
2026-04-27 22:48 46.05839 -60.71925 40414 ft 452 kts 237°
2026-04-27 22:49 46.02396 -60.79433 40415 ft 453 kts 236°
2026-04-27 22:49 45.98916 -60.87002 40419 ft 454 kts 236°
2026-04-27 22:50 45.95423 -60.94578 40415 ft 455 kts 236°
2026-04-27 22:50 45.91924 -61.02149 40414 ft 455 kts 236°
2026-04-27 22:51 45.88416 -61.09715 40411 ft 455 kts 236°
2026-04-27 22:51 45.84923 -61.17233 39839 ft 450 kts 236°
2026-04-27 22:51 45.83184 -61.20967 39173 ft 450 kts 236°
2026-04-27 22:52 45.81472 -61.24638 38433 ft 447 kts 236°
2026-04-27 22:52 45.79751 -61.28324 37765 ft 443 kts 236°
2026-04-27 22:52 45.78048 -61.31967 37159 ft 437 kts 235°
2026-04-27 22:52 45.76363 -61.35566 36574 ft 432 kts 235°
2026-04-27 22:53 45.74687 -61.39134 36105 ft 437 kts 237°
2026-04-27 22:53 45.72955 -61.42834 35509 ft 456 kts 237°
2026-04-27 22:53 45.71185 -61.46605 34896 ft 457 kts 237°
2026-04-27 22:53 45.69411 -61.50369 34285 ft 456 kts 237°
2026-04-27 22:54 45.67640 -61.54122 33578 ft 454 kts 237°
2026-04-27 22:54 45.65903 -61.57806 32954 ft 452 kts 237°
2026-04-27 22:54 45.64153 -61.61513 32337 ft 449 kts 237°
2026-04-27 22:54 45.62408 -61.65201 31734 ft 446 kts 237°
2026-04-27 22:55 45.60672 -61.68864 31142 ft 444 kts 237°
2026-04-27 22:55 45.58946 -61.72504 30558 ft 442 kts 237°
2026-04-27 22:55 45.57228 -61.76122 29904 ft 439 kts 237°
2026-04-27 22:55 45.55518 -61.79717 29287 ft 435 kts 237°
2026-04-27 22:56 45.53824 -61.83274 28711 ft 431 kts 237°
2026-04-27 22:56 45.52146 -61.86795 28134 ft 427 kts 237°
2026-04-27 22:56 45.50492 -61.90264 27435 ft 422 kts 235°
2026-04-27 22:56 45.48836 -61.93657 26468 ft 408 kts 233°
2026-04-27 22:57 45.47214 -61.96741 25493 ft 381 kts 232°
2026-04-27 22:57 45.45677 -61.99648 24758 ft 355 kts 232°
2026-04-27 22:57 45.44276 -62.02403 24168 ft 332 kts 233°
2026-04-27 22:57 45.42940 -62.05048 23640 ft 336 kts 233°
2026-04-27 22:58 45.41538 -62.07775 23118 ft 342 kts 233°
2026-04-27 22:58 45.40139 -62.10483 22657 ft 337 kts 233°
2026-04-27 22:58 45.38762 -62.13159 22215 ft 333 kts 233°
2026-04-27 22:58 45.37401 -62.15808 21796 ft 331 kts 233°
2026-04-27 22:59 45.36041 -62.18448 21410 ft 332 kts 233°
2026-04-27 22:59 45.34672 -62.21100 21006 ft 333 kts 233°
2026-04-27 22:59 45.33303 -62.23752 20609 ft 331 kts 233°
2026-04-27 22:59 45.31969 -62.26333 20213 ft 327 kts 234°
2026-04-27 23:00 45.29280 -62.31529 19450 ft 328 kts 234°
2026-04-27 23:00 45.27926 -62.34142 19076 ft 329 kts 234°
2026-04-27 23:00 45.26581 -62.36735 18688 ft 324 kts 234°
2026-04-27 23:01 45.25251 -62.39297 18248 ft 321 kts 234°
2026-04-27 23:01 45.23937 -62.41826 17825 ft 321 kts 234°
2026-04-27 23:01 45.22609 -62.44379 17315 ft 321 kts 234°
2026-04-27 23:01 45.21291 -62.46912 16848 ft 317 kts 234°
2026-04-27 23:02 45.19989 -62.49410 16440 ft 314 kts 234°
2026-04-27 23:02 45.18692 -62.51899 16047 ft 314 kts 234°
2026-04-27 23:02 45.17392 -62.54390 15666 ft 314 kts 234°
2026-04-27 23:02 45.16097 -62.56867 15275 ft 310 kts 234°
2026-04-27 23:03 45.14836 -62.59279 14918 ft 309 kts 234°
2026-04-27 23:03 45.13557 -62.61725 14565 ft 310 kts 234°
2026-04-27 23:03 45.12425 -62.64310 14131 ft 310 kts 249°
2026-04-27 23:03 45.11907 -62.67238 13751 ft 303 kts 260°
2026-04-27 23:04 45.11596 -62.70180 13422 ft 302 kts 263°
2026-04-27 23:04 45.11333 -62.73094 13124 ft 293 kts 263°
2026-04-27 23:04 45.11088 -62.75897 13042 ft 281 kts 263°
2026-04-27 23:04 45.10851 -62.78624 13029 ft 279 kts 263°
2026-04-27 23:05 45.10612 -62.81357 13029 ft 281 kts 263°
2026-04-27 23:05 45.10373 -62.84102 13032 ft 281 kts 263°
2026-04-27 23:05 45.10137 -62.86813 13028 ft 282 kts 263°
2026-04-27 23:05 45.09896 -62.89570 13029 ft 282 kts 263°
2026-04-27 23:06 45.09655 -62.92321 13026 ft 282 kts 263°
2026-04-27 23:06 45.09482 -62.94921 13002 ft 282 kts 270°
2026-04-27 23:06 45.09658 -62.97654 12928 ft 271 kts 276°
2026-04-27 23:06 45.09607 -63.00282 11853 ft 270 kts 265°
2026-04-27 23:07 45.09356 -63.02947 10788 ft 274 kts 263°
2026-04-27 23:07 45.09102 -63.05556 10105 ft 261 kts 265°
2026-04-27 23:07 45.08966 -63.08087 9271 ft 257 kts 268°
2026-04-27 23:07 45.08867 -63.10578 8844 ft 245 kts 268°
2026-04-27 23:08 45.08746 -63.12951 8689 ft 243 kts 267°
2026-04-27 23:08 45.08612 -63.15356 8536 ft 249 kts 267°
2026-04-27 23:08 45.08476 -63.17821 8357 ft 249 kts 267°
2026-04-27 23:08 45.08348 -63.20188 8184 ft 244 kts 267°
2026-04-27 23:09 45.08219 -63.22597 8001 ft 247 kts 267°
2026-04-27 23:09 45.08088 -63.25023 7826 ft 247 kts 267°
2026-04-27 23:09 45.07955 -63.27443 7644 ft 244 kts 267°
2026-04-27 23:09 45.07825 -63.29816 7468 ft 243 kts 267°
2026-04-27 23:10 45.07692 -63.32213 7286 ft 246 kts 267°
2026-04-27 23:10 45.07560 -63.34615 7101 ft 242 kts 267°
2026-04-27 23:10 45.07429 -63.36974 6921 ft 241 kts 267°
2026-04-27 23:10 45.07299 -63.39320 6766 ft 244 kts 267°
2026-04-27 23:11 45.07167 -63.41673 6589 ft 244 kts 267°
2026-04-27 23:11 45.07031 -63.44082 6382 ft 238 kts 267°
2026-04-27 23:11 45.06899 -63.46428 6190 ft 241 kts 267°
2026-04-27 23:11 45.06766 -63.48802 6014 ft 243 kts 266°
2026-04-27 23:12 45.06631 -63.51177 5830 ft 239 kts 266°
2026-04-27 23:12 45.06498 -63.53515 5649 ft 240 kts 266°
2026-04-27 23:12 45.06363 -63.55883 5502 ft 239 kts 266°
2026-04-27 23:12 45.06234 -63.58098 5370 ft 221 kts 266°
2026-04-27 23:13 45.06112 -63.60200 5206 ft 211 kts 266°
2026-04-27 23:13 45.05993 -63.62283 5049 ft 215 kts 266°
2026-04-27 23:13 45.05669 -63.64339 4771 ft 218 kts 244°
2026-04-27 23:13 45.04597 -63.65785 4429 ft 211 kts 213°
2026-04-27 23:14 45.03401 -63.66885 4268 ft 201 kts 212°
2026-04-27 23:14 45.02249 -63.68001 4095 ft 200 kts 214°
2026-04-27 23:14 45.01121 -63.69121 4002 ft 196 kts 214°
2026-04-27 23:14 44.99946 -63.70075 3929 ft 196 kts 197°
2026-04-27 23:15 44.98655 -63.69873 3804 ft 191 kts 153°
2026-04-27 23:15 44.97695 -63.68660 3857 ft 185 kts 127°
2026-04-27 23:15 44.96977 -63.67128 3959 ft 197 kts 119°
2026-04-27 23:15 44.96258 -63.65434 3758 ft 197 kts 120°
2026-04-27 23:16 44.95505 -63.63827 3183 ft 203 kts 123°
2026-04-27 23:16 44.94719 -63.62285 2776 ft 181 kts 124°
2026-04-27 23:16 44.94020 -63.60907 2214 ft 166 kts 126°
2026-04-27 23:16 44.93333 -63.59640 1544 ft 154 kts 128°
2026-04-27 23:17 44.92740 -63.58504 1437 ft 143 kts 127°
2026-04-27 23:17 44.92178 -63.57380 1303 ft 140 kts 126°
2026-04-27 23:17 44.91626 -63.56275 1118 ft 139 kts 127°
2026-04-27 23:17 44.91075 -63.55169 949 ft 138 kts 127°
2026-04-27 23:18 44.90525 -63.54063 786 ft 138 kts 128°
2026-04-27 23:18 44.89970 -63.52949 624 ft 139 kts 128°
2026-04-27 23:18 44.89417 -63.51830 474 ft 138 kts 128°
2026-04-27 23:18 44.88909 -63.50820 452 ft 100 kts 125°
2026-04-27 23:19 44.88611 -63.50223 466 ft 58 kts 125°
2026-04-27 23:19 44.88455 -63.49915 469 ft 29 kts 126°
2026-04-27 23:19 44.88382 -63.49803 479 ft 1 kts 177°
2026-04-27 23:19 44.88343 -63.49848 477 ft 19 kts 232°
2026-04-27 23:20 44.88314 -63.49891 477 ft 0 kts 221°
2026-04-27 23:20 44.88309 -63.49897 473 ft 2 kts 221°
2026-04-27 23:20 44.88303 -63.49905 474 ft 0 kts 221°
2026-04-27 23:20 44.88299 -63.49910 475 ft 2 kts 221°
2026-04-27 23:21 44.88284 -63.49933 475 ft 4 kts 237°
2026-04-27 23:21 44.88290 -63.49985 478 ft 11 kts 304°
2026-04-27 23:21 44.88337 -63.50101 475 ft 15 kts 299°
2026-04-27 23:21 44.88368 -63.50255 472 ft 19 kts 264°
2026-04-27 23:22 44.88349 -63.50496 469 ft 30 kts 263°
2026-04-27 23:22 44.88329 -63.50775 462 ft 25 kts 265°
2026-04-27 23:22 44.88319 -63.50996 460 ft 18 kts 282°
2026-04-27 23:22 44.88381 -63.51142 456 ft 18 kts 304°
2026-04-27 23:23 44.88411 -63.51201 457 ft 0 kts 320°
2026-04-27 23:23 44.88428 -63.51203 457 ft 6 kts 358°
2026-04-27 23:24 44.88479 -63.51206 457 ft 4 kts 352°
2026-04-27 23:24 44.88483 -63.51207 457 ft 0 kts 351°
2026-04-27 23:24 44.88487 -63.51208 457 ft 0 kts 351°
2026-04-27 23:25 44.88491 -63.51209 457 ft 2 kts 351°
2026-04-27 23:25 44.88513 -63.51214 457 ft 3 kts 351°
2026-04-27 23:26 44.88541 -63.51221 457 ft 4 kts 350°
2026-04-27 23:26 44.88570 -63.51229 457 ft 5 kts 349°
2026-04-27 23:26 44.88642 -63.51247 457 ft 18 kts 350°
2026-04-27 23:26 44.88764 -63.51276 457 ft 15 kts 350°
2026-04-27 23:27 44.88860 -63.51300 457 ft 16 kts 349°
2026-04-27 23:27 44.88919 -63.51338 457 ft 8 kts 313°
2026-04-27 23:27 44.88962 -63.51425 457 ft 6 kts 298°
2026-04-27 23:27 44.88983 -63.51462 457 ft 1 kts 313°
2026-04-27 23:28 44.88997 -63.51484 457 ft 1 kts 297°
2026-04-27 23:28 44.88992 -63.51520 457 ft 2 kts 236°
2026-04-27 23:28 44.88979 -63.51530 457 ft 3 kts 197°
2026-04-27 23:28 44.88960 -63.51544 457 ft 5 kts 217°
2026-04-27 23:29 44.88943 -63.51563 457 ft 2 kts 216°
2026-04-27 23:29 44.88942 -63.51564 457 ft 0 kts 216°